DKH1058 ZSPD-ZSAM

Flight info

Callsign DKH1058
Flight time 1h 32m
Altitude 25600
Route NXD81D/17L NXD W131 AKDIM A470 ENVEN ENVEN8X
Aircraft A359/H-SDE2E3GHIJ3J4J5LM1ORWXY/LB1D1

Departure

Time 2026-05-04 13:53
Airport Shanghai Pudong International Airport (ZSPD)

Arrival

Time 2026-05-04 15:26
Airport Xiamen Gaoqi International Airport (ZSAM)
Time Latitude Longitude Altitude Speed Heading
2026-05-04 13:27 31.15272 121.80963 29 ft 0 kts 71°
2026-05-04 13:34 31.15270 121.80959 28 ft 2 kts 72°
2026-05-04 13:34 31.15265 121.80938 27 ft 3 kts 72°
2026-05-04 13:34 31.15258 121.80915 29 ft 3 kts 72°
2026-05-04 13:34 31.15254 121.80899 28 ft 3 kts 79°
2026-05-04 13:35 31.15253 121.80880 28 ft 3 kts 129°
2026-05-04 13:35 31.15282 121.80864 27 ft 1 kts 162°
2026-05-04 13:35 31.15283 121.80864 27 ft 1 kts 162°
2026-05-04 13:42 31.15197 121.80896 29 ft 20 kts 162°
2026-05-04 13:42 31.15048 121.80953 29 ft 24 kts 161°
2026-05-04 13:42 31.14847 121.81029 29 ft 18 kts 162°
2026-05-04 13:42 31.14729 121.81073 29 ft 18 kts 162°
2026-05-04 13:43 31.14602 121.81121 29 ft 20 kts 162°
2026-05-04 13:43 31.14581 121.81129 29 ft 0 kts 161°
2026-05-04 13:43 31.14575 121.81131 29 ft 1 kts 162°
2026-05-04 13:43 31.14565 121.81135 29 ft 1 kts 162°
2026-05-04 13:44 31.14562 121.81136 29 ft 1 kts 162°
2026-05-04 13:44 31.14538 121.81145 29 ft 9 kts 162°
2026-05-04 13:44 31.14445 121.81132 29 ft 19 kts 228°
2026-05-04 13:44 31.14385 121.80953 29 ft 30 kts 251°
2026-05-04 13:45 31.14311 121.80685 29 ft 37 kts 251°
2026-05-04 13:45 31.14236 121.80416 29 ft 31 kts 252°
2026-05-04 13:45 31.14168 121.80172 29 ft 32 kts 252°
2026-05-04 13:45 31.14099 121.79920 29 ft 28 kts 252°
2026-05-04 13:46 31.14058 121.79771 29 ft 17 kts 254°
2026-05-04 13:46 31.14050 121.79631 29 ft 17 kts 300°
2026-05-04 13:46 31.14157 121.79563 29 ft 19 kts 341°
2026-05-04 13:46 31.14282 121.79515 29 ft 18 kts 343°
2026-05-04 13:47 31.14354 121.79488 29 ft 0 kts 341°
2026-05-04 13:47 31.14369 121.79482 29 ft 8 kts 341°
2026-05-04 13:47 31.14472 121.79443 29 ft 23 kts 342°
2026-05-04 13:48 31.14654 121.79373 29 ft 28 kts 342°
2026-05-04 13:48 31.14813 121.79313 30 ft 15 kts 341°
2026-05-04 13:48 31.14923 121.79272 30 ft 18 kts 342°
2026-05-04 13:48 31.15050 121.79224 29 ft 22 kts 342°
2026-05-04 13:49 31.15201 121.79167 29 ft 24 kts 342°
2026-05-04 13:49 31.15365 121.79104 29 ft 26 kts 341°
2026-05-04 13:49 31.15527 121.79044 28 ft 11 kts 342°
2026-05-04 13:49 31.15554 121.79034 29 ft 0 kts 342°
2026-05-04 13:50 31.15584 121.79022 29 ft 12 kts 342°
2026-05-04 13:50 31.15706 121.78976 29 ft 24 kts 342°
2026-05-04 13:50 31.15876 121.78913 29 ft 20 kts 342°
2026-05-04 13:50 31.15946 121.78865 29 ft 0 kts 308°
2026-05-04 13:51 31.15951 121.78852 29 ft 5 kts 289°
2026-05-04 13:51 31.15950 121.78802 29 ft 1 kts 259°
2026-05-04 13:51 31.15937 121.78753 28 ft 13 kts 253°
2026-05-04 13:52 31.15813 121.78724 29 ft 0 kts 162°
2026-05-04 13:52 31.15777 121.78736 29 ft 22 kts 165°
2026-05-04 13:53 31.15372 121.78888 27 ft 100 kts 161°
2026-05-04 13:53 31.14500 121.79211 32 ft 164 kts 161°
2026-05-04 13:53 31.13388 121.79622 847 ft 157 kts 163°
2026-05-04 13:54 31.11300 121.80277 1993 ft 170 kts 166°
2026-05-04 13:54 31.10096 121.80706 2254 ft 191 kts 166°
2026-05-04 13:54 31.07313 121.81684 2912 ft 227 kts 166°
2026-05-04 13:55 31.05713 121.82232 3210 ft 250 kts 166°
2026-05-04 13:55 31.02231 121.83275 4410 ft 264 kts 177°
2026-05-04 13:55 31.00436 121.82941 5047 ft 264 kts 206°
2026-05-04 13:56 30.99002 121.81640 5608 ft 265 kts 234°
2026-05-04 13:56 30.98178 121.79717 5875 ft 267 kts 253°
2026-05-04 13:56 30.97089 121.75571 5909 ft 268 kts 255°
2026-05-04 13:57 30.96552 121.73509 6192 ft 271 kts 256°
2026-05-04 13:57 30.96298 121.71342 6671 ft 269 kts 275°
2026-05-04 13:58 30.97393 121.64972 6892 ft 268 kts 284°
2026-05-04 13:58 30.98205 121.60703 7649 ft 272 kts 284°
2026-05-04 13:58 30.98607 121.58551 8372 ft 272 kts 284°
2026-05-04 13:59 30.99009 121.56384 9042 ft 275 kts 284°
2026-05-04 13:59 30.99413 121.54198 9733 ft 278 kts 284°
2026-05-04 13:59 31.00254 121.49640 10538 ft 302 kts 284°
2026-05-04 14:00 31.00706 121.47186 10796 ft 317 kts 284°
2026-05-04 14:00 31.01679 121.41932 11316 ft 343 kts 283°
2026-05-04 14:00 31.02174 121.39221 11745 ft 348 kts 283°
2026-05-04 14:01 31.02682 121.36446 12259 ft 351 kts 283°
2026-05-04 14:01 31.03193 121.33651 12778 ft 353 kts 283°
2026-05-04 14:01 31.04224 121.28010 13776 ft 358 kts 282°
2026-05-04 14:02 31.04744 121.25158 14252 ft 360 kts 282°
2026-05-04 14:02 31.05268 121.22286 14716 ft 362 kts 282°
2026-05-04 14:02 31.05791 121.19412 15186 ft 363 kts 282°
2026-05-04 14:02 31.06316 121.16526 15669 ft 364 kts 282°
2026-05-04 14:03 31.06719 121.13605 16141 ft 366 kts 274°
2026-05-04 14:03 31.06530 121.10646 16625 ft 368 kts 258°
2026-05-04 14:03 31.05888 121.07756 17102 ft 369 kts 255°
2026-05-04 14:03 31.05164 121.04881 17590 ft 370 kts 254°
2026-05-04 14:04 31.03707 120.99093 18520 ft 373 kts 255°
2026-05-04 14:04 31.02982 120.96187 18929 ft 374 kts 255°
2026-05-04 14:04 31.02253 120.93263 19311 ft 376 kts 255°
2026-05-04 14:05 31.00821 120.87507 20090 ft 379 kts 255°
2026-05-04 14:05 31.00087 120.84558 20484 ft 379 kts 255°
2026-05-04 14:05 30.99354 120.81613 20956 ft 378 kts 255°
2026-05-04 14:06 30.98620 120.78672 21376 ft 378 kts 255°
2026-05-04 14:06 30.97876 120.75689 21766 ft 379 kts 255°
2026-05-04 14:06 30.97147 120.72773 22139 ft 380 kts 255°
2026-05-04 14:06 30.96407 120.69812 22526 ft 381 kts 255°
2026-05-04 14:07 30.95663 120.66842 22901 ft 382 kts 255°
2026-05-04 14:07 30.94908 120.63828 23274 ft 383 kts 255°
2026-05-04 14:07 30.94170 120.60887 23633 ft 384 kts 255°
2026-05-04 14:07 30.93419 120.57897 23931 ft 385 kts 255°
2026-05-04 14:08 30.92665 120.54899 24228 ft 386 kts 255°
2026-05-04 14:08 30.91909 120.51896 24531 ft 387 kts 255°
2026-05-04 14:08 30.91131 120.48896 24837 ft 388 kts 253°
2026-05-04 14:08 30.90102 120.45977 25144 ft 391 kts 246°
2026-05-04 14:09 30.86822 120.40845 25647 ft 406 kts 229°
2026-05-04 14:09 30.84596 120.38665 25689 ft 427 kts 223°
2026-05-04 14:10 30.79672 120.34533 25684 ft 438 kts 220°
2026-05-04 14:10 30.77152 120.32533 25682 ft 439 kts 220°
2026-05-04 14:10 30.74633 120.30534 25682 ft 438 kts 220°
2026-05-04 14:10 30.72120 120.28521 25683 ft 438 kts 220°
2026-05-04 14:11 30.69617 120.26497 25680 ft 438 kts 220°
2026-05-04 14:11 30.64661 120.22449 25679 ft 437 kts 220°
2026-05-04 14:11 30.62183 120.20417 25684 ft 436 kts 220°
2026-05-04 14:12 30.59708 120.18387 25683 ft 436 kts 220°
2026-05-04 14:12 30.57231 120.16356 25683 ft 436 kts 220°
2026-05-04 14:12 30.52270 120.12296 25686 ft 436 kts 220°
2026-05-04 14:13 30.49789 120.10268 25689 ft 436 kts 220°
2026-05-04 14:13 30.47302 120.08237 25676 ft 437 kts 220°
2026-05-04 14:13 30.44847 120.06239 25683 ft 436 kts 220°
2026-05-04 14:13 30.42267 120.04368 25686 ft 438 kts 217°
2026-05-04 14:14 30.39651 120.02564 25685 ft 438 kts 216°
2026-05-04 14:14 30.34380 119.99035 25690 ft 438 kts 216°
2026-05-04 14:14 30.31735 119.97283 25691 ft 438 kts 215°
2026-05-04 14:15 30.26441 119.93777 25694 ft 438 kts 216°
2026-05-04 14:15 30.21157 119.90270 25696 ft 438 kts 216°
2026-05-04 14:16 30.15880 119.86767 25700 ft 438 kts 216°
2026-05-04 14:16 30.13237 119.85012 25697 ft 438 kts 216°
2026-05-04 14:17 30.07946 119.81507 25701 ft 438 kts 215°
2026-05-04 14:17 30.05302 119.79756 25686 ft 439 kts 216°
2026-05-04 14:17 30.00024 119.76251 25703 ft 435 kts 216°
2026-05-04 14:18 29.97443 119.74511 25704 ft 435 kts 216°
2026-05-04 14:18 29.92216 119.70977 25713 ft 435 kts 216°
2026-05-04 14:19 29.86848 119.67683 25710 ft 442 kts 208°
2026-05-04 14:19 29.83870 119.66666 25709 ft 451 kts 198°
2026-05-04 14:19 29.80744 119.66186 25696 ft 455 kts 193°
2026-05-04 14:19 29.77575 119.65916 25707 ft 456 kts 191°
2026-05-04 14:20 29.74405 119.65750 25712 ft 456 kts 190°
2026-05-04 14:20 29.71242 119.65591 25712 ft 455 kts 190°
2026-05-04 14:20 29.68076 119.65408 25719 ft 454 kts 191°
2026-05-04 14:21 29.61810 119.65001 25713 ft 454 kts 191°
2026-05-04 14:21 29.58637 119.64852 25696 ft 456 kts 189°
2026-05-04 14:21 29.55459 119.64768 25711 ft 456 kts 188°
2026-05-04 14:21 29.52286 119.64695 25715 ft 455 kts 189°
2026-05-04 14:22 29.49116 119.64554 25718 ft 454 kts 190°
2026-05-04 14:22 29.45956 119.64367 25719 ft 454 kts 191°
2026-05-04 14:22 29.42799 119.64161 25719 ft 454 kts 191°
2026-05-04 14:22 29.39643 119.63954 25718 ft 454 kts 191°
2026-05-04 14:23 29.33338 119.63547 25696 ft 453 kts 191°
2026-05-04 14:23 29.30217 119.63350 25716 ft 454 kts 190°
2026-05-04 14:23 29.27057 119.63155 25721 ft 455 kts 190°
2026-05-04 14:24 29.23893 119.62960 25722 ft 455 kts 191°
2026-05-04 14:24 29.20732 119.62757 25724 ft 455 kts 191°
2026-05-04 14:24 29.17563 119.62561 25723 ft 455 kts 190°
2026-05-04 14:24 29.14386 119.62370 25719 ft 455 kts 190°
2026-05-04 14:25 29.11222 119.62181 25721 ft 455 kts 190°
2026-05-04 14:25 29.04926 119.61811 25723 ft 457 kts 191°
2026-05-04 14:25 29.01752 119.61615 25724 ft 457 kts 191°
2026-05-04 14:26 28.98565 119.61412 25727 ft 457 kts 191°
2026-05-04 14:26 28.95381 119.61209 25726 ft 457 kts 191°
2026-05-04 14:26 28.92202 119.61022 25727 ft 458 kts 190°
2026-05-04 14:26 28.89026 119.60846 25737 ft 457 kts 190°
2026-05-04 14:27 28.85840 119.60666 25739 ft 458 kts 191°
2026-05-04 14:27 28.82660 119.60457 25720 ft 458 kts 191°
2026-05-04 14:27 28.79477 119.60241 25736 ft 458 kts 191°
2026-05-04 14:27 28.76294 119.60028 25738 ft 458 kts 191°
2026-05-04 14:28 28.73152 119.59824 25735 ft 458 kts 191°
2026-05-04 14:28 28.69971 119.59625 25732 ft 458 kts 191°
2026-05-04 14:28 28.66788 119.59428 25743 ft 458 kts 191°
2026-05-04 14:28 28.63595 119.59232 25743 ft 458 kts 191°
2026-05-04 14:29 28.58302 119.58907 25713 ft 458 kts 191°
2026-05-04 14:29 28.51926 119.58515 25744 ft 460 kts 191°
2026-05-04 14:30 28.47689 119.58252 25754 ft 459 kts 191°
2026-05-04 14:30 28.45532 119.58119 25753 ft 459 kts 191°
2026-05-04 14:30 28.39152 119.57751 25752 ft 460 kts 190°
2026-05-04 14:31 28.35955 119.57577 25755 ft 460 kts 190°
2026-05-04 14:31 28.29555 119.57238 25747 ft 459 kts 191°
2026-05-04 14:32 28.23169 119.56882 25762 ft 459 kts 191°
2026-05-04 14:32 28.20024 119.56708 25755 ft 459 kts 191°
2026-05-04 14:32 28.16830 119.56533 25757 ft 459 kts 191°
2026-05-04 14:32 28.13640 119.56355 25764 ft 459 kts 191°
2026-05-04 14:33 28.10448 119.56182 25763 ft 459 kts 191°
2026-05-04 14:33 28.07253 119.56042 25739 ft 460 kts 189°
2026-05-04 14:33 28.04044 119.55973 25765 ft 460 kts 189°
2026-05-04 14:33 28.00840 119.55948 25764 ft 462 kts 188°
2026-05-04 14:34 27.97613 119.55931 25767 ft 462 kts 188°
2026-05-04 14:34 27.94397 119.55910 25775 ft 462 kts 188°
2026-05-04 14:34 27.91175 119.55895 25775 ft 461 kts 188°
2026-05-04 14:34 27.87971 119.55872 25775 ft 461 kts 188°
2026-05-04 14:35 27.84768 119.55850 25756 ft 461 kts 188°
2026-05-04 14:35 27.81549 119.55849 25786 ft 462 kts 188°
2026-05-04 14:35 27.78340 119.55834 25773 ft 460 kts 188°
2026-05-04 14:35 27.75138 119.55801 25778 ft 460 kts 188°
2026-05-04 14:36 27.71934 119.55765 25764 ft 460 kts 188°
2026-05-04 14:36 27.68719 119.55750 25771 ft 463 kts 188°
2026-05-04 14:36 27.65541 119.55735 25791 ft 462 kts 188°
2026-05-04 14:36 27.62329 119.55717 25772 ft 462 kts 188°
2026-05-04 14:37 27.59112 119.55700 25782 ft 461 kts 188°
2026-05-04 14:37 27.55895 119.55681 25753 ft 460 kts 188°
2026-05-04 14:37 27.52693 119.55657 25775 ft 460 kts 188°
2026-05-04 14:37 27.49487 119.55641 25779 ft 461 kts 188°
2026-05-04 14:38 27.46277 119.55634 25785 ft 460 kts 188°
2026-05-04 14:38 27.43078 119.55621 25784 ft 460 kts 188°
2026-05-04 14:38 27.39873 119.55605 25787 ft 460 kts 188°
2026-05-04 14:38 27.36669 119.55601 25783 ft 461 kts 188°
2026-05-04 14:39 27.33503 119.55604 25788 ft 461 kts 188°
2026-05-04 14:39 27.30300 119.55604 25785 ft 460 kts 188°
2026-05-04 14:39 27.27094 119.55600 25777 ft 460 kts 188°
2026-05-04 14:40 27.20682 119.55572 25783 ft 460 kts 188°
2026-05-04 14:40 27.17488 119.55547 25782 ft 459 kts 188°
2026-05-04 14:40 27.14294 119.55517 25781 ft 459 kts 188°
2026-05-04 14:40 27.11094 119.55488 25786 ft 459 kts 188°
2026-05-04 14:41 27.07898 119.55463 25782 ft 459 kts 188°
2026-05-04 14:41 27.04700 119.55439 25777 ft 459 kts 188°
2026-05-04 14:41 26.98337 119.55402 25779 ft 460 kts 188°
2026-05-04 14:42 26.91932 119.55366 25778 ft 460 kts 188°
2026-05-04 14:42 26.88731 119.55344 25765 ft 460 kts 188°
2026-05-04 14:42 26.85527 119.55326 25779 ft 460 kts 188°
2026-05-04 14:43 26.82324 119.55306 25777 ft 460 kts 188°
2026-05-04 14:43 26.79120 119.55285 25775 ft 460 kts 188°
2026-05-04 14:43 26.75924 119.55263 25765 ft 460 kts 188°
2026-05-04 14:43 26.72717 119.55242 25774 ft 460 kts 188°
2026-05-04 14:44 26.69514 119.55222 25775 ft 460 kts 188°
2026-05-04 14:44 26.66347 119.55201 25775 ft 461 kts 188°
2026-05-04 14:44 26.63141 119.55180 25773 ft 461 kts 188°
2026-05-04 14:44 26.59936 119.55158 25760 ft 461 kts 188°
2026-05-04 14:45 26.56737 119.55136 25777 ft 461 kts 188°
2026-05-04 14:45 26.53520 119.55117 25773 ft 460 kts 188°
2026-05-04 14:45 26.50316 119.55099 25740 ft 461 kts 188°
2026-05-04 14:45 26.47107 119.55079 25767 ft 461 kts 188°
2026-05-04 14:46 26.43906 119.55058 25768 ft 461 kts 188°
2026-05-04 14:46 26.40700 119.55035 25767 ft 460 kts 187°
2026-05-04 14:46 26.37492 119.55017 25764 ft 461 kts 187°
2026-05-04 14:46 26.34285 119.54994 25766 ft 460 kts 188°
2026-05-04 14:47 26.31081 119.54958 25765 ft 460 kts 188°
2026-05-04 14:47 26.27920 119.54916 25760 ft 460 kts 188°
2026-05-04 14:47 26.24714 119.54858 25755 ft 458 kts 189°
2026-05-04 14:47 26.21576 119.54451 25756 ft 450 kts 198°
2026-05-04 14:48 26.18545 119.53642 25768 ft 446 kts 201°
2026-05-04 14:48 26.15555 119.52708 25767 ft 445 kts 203°
2026-05-04 14:48 26.12595 119.51712 25758 ft 444 kts 204°
2026-05-04 14:48 26.09638 119.50686 25753 ft 444 kts 204°
2026-05-04 14:49 26.06688 119.49655 25755 ft 444 kts 204°
2026-05-04 14:49 26.03735 119.48627 25760 ft 445 kts 203°
2026-05-04 14:49 26.00813 119.47623 25752 ft 445 kts 204°
2026-05-04 14:49 25.97856 119.46608 25731 ft 445 kts 204°
2026-05-04 14:50 25.94896 119.45597 25760 ft 445 kts 204°
2026-05-04 14:50 25.91938 119.44590 25753 ft 444 kts 204°
2026-05-04 14:50 25.88980 119.43586 25754 ft 444 kts 204°
2026-05-04 14:50 25.86019 119.42580 25754 ft 445 kts 204°
2026-05-04 14:51 25.83056 119.41574 25755 ft 445 kts 204°
2026-05-04 14:51 25.80094 119.40568 25755 ft 445 kts 204°
2026-05-04 14:51 25.77161 119.39476 25754 ft 441 kts 208°
2026-05-04 14:51 25.74432 119.37969 25749 ft 434 kts 217°
2026-05-04 14:52 25.72031 119.35995 25755 ft 427 kts 226°
2026-05-04 14:52 25.69924 119.33700 25760 ft 424 kts 230°
2026-05-04 14:52 25.67892 119.31330 25752 ft 424 kts 230°
2026-05-04 14:52 25.65870 119.28952 25751 ft 424 kts 230°
2026-05-04 14:53 25.63853 119.26579 25752 ft 424 kts 230°
2026-05-04 14:53 25.61831 119.24203 25770 ft 424 kts 230°
2026-05-04 14:53 25.59827 119.21850 25750 ft 424 kts 230°
2026-05-04 14:53 25.57805 119.19476 25751 ft 424 kts 230°
2026-05-04 14:54 25.55780 119.17103 25752 ft 424 kts 230°
2026-05-04 14:54 25.53746 119.14722 25752 ft 424 kts 230°
2026-05-04 14:54 25.51720 119.12349 25746 ft 424 kts 230°
2026-05-04 14:54 25.49691 119.09974 25755 ft 424 kts 230°
2026-05-04 14:55 25.47658 119.07596 25753 ft 424 kts 230°
2026-05-04 14:55 25.45624 119.05217 25754 ft 424 kts 230°
2026-05-04 14:55 25.43593 119.02843 25748 ft 424 kts 230°
2026-05-04 14:55 25.41592 119.00505 25751 ft 424 kts 230°
2026-05-04 14:56 25.39563 118.98136 25751 ft 424 kts 230°
2026-05-04 14:56 25.37533 118.95768 25751 ft 424 kts 230°
2026-05-04 14:56 25.35502 118.93401 25752 ft 425 kts 230°
2026-05-04 14:56 25.33469 118.91031 25748 ft 425 kts 230°
2026-05-04 14:57 25.31464 118.88629 25752 ft 424 kts 231°
2026-05-04 14:57 25.29479 118.86206 25750 ft 425 kts 231°
2026-05-04 14:57 25.27492 118.83784 25749 ft 425 kts 231°
2026-05-04 14:57 25.25504 118.81367 25745 ft 425 kts 231°
2026-05-04 14:58 25.23510 118.78950 25749 ft 426 kts 231°
2026-05-04 14:58 25.21514 118.76534 25749 ft 425 kts 231°
2026-05-04 14:58 25.19517 118.74121 25747 ft 425 kts 231°
2026-05-04 14:58 25.17520 118.71709 25749 ft 425 kts 231°
2026-05-04 14:59 25.15528 118.69306 25738 ft 424 kts 231°
2026-05-04 14:59 25.13549 118.66923 25255 ft 416 kts 231°
2026-05-04 14:59 25.09667 118.62246 23694 ft 416 kts 231°
2026-05-04 15:00 25.07696 118.59908 22856 ft 414 kts 229°
2026-05-04 15:00 25.05710 118.57634 22168 ft 409 kts 229°
2026-05-04 15:00 25.03766 118.55422 21977 ft 392 kts 229°
2026-05-04 15:01 25.00136 118.51274 21725 ft 360 kts 229°
2026-05-04 15:01 24.98433 118.49322 21590 ft 345 kts 230°
2026-05-04 15:01 24.96805 118.47455 21460 ft 331 kts 230°
2026-05-04 15:01 24.95239 118.45660 21334 ft 318 kts 230°
2026-05-04 15:02 24.93755 118.43958 21202 ft 306 kts 230°
2026-05-04 15:02 24.92292 118.42282 21097 ft 294 kts 230°
2026-05-04 15:02 24.90918 118.40708 20939 ft 283 kts 230°
2026-05-04 15:02 24.89566 118.39157 20809 ft 272 kts 230°
2026-05-04 15:03 24.88299 118.37706 20685 ft 261 kts 230°
2026-05-04 15:03 24.87069 118.36300 20558 ft 250 kts 231°
2026-05-04 15:03 24.85906 118.34931 20389 ft 241 kts 234°
2026-05-04 15:03 24.85020 118.33393 20111 ft 235 kts 249°
2026-05-04 15:04 24.84630 118.31667 19803 ft 233 kts 264°
2026-05-04 15:04 24.84778 118.29881 19503 ft 237 kts 280°
2026-05-04 15:04 24.85471 118.28208 19203 ft 245 kts 297°
2026-05-04 15:04 24.86553 118.26719 18858 ft 250 kts 303°
2026-05-04 15:05 24.87672 118.25290 18559 ft 248 kts 303°
2026-05-04 15:05 24.88661 118.23741 18246 ft 241 kts 293°
2026-05-04 15:05 24.89457 118.22126 17958 ft 239 kts 291°
2026-05-04 15:05 24.90206 118.20524 17662 ft 237 kts 290°
2026-05-04 15:06 24.90955 118.18910 17380 ft 236 kts 290°
2026-05-04 15:06 24.91701 118.17296 17093 ft 236 kts 290°
2026-05-04 15:06 24.92317 118.15642 16820 ft 230 kts 281°
2026-05-04 15:07 24.93098 118.12388 16523 ft 211 kts 279°
2026-05-04 15:07 24.93452 118.10837 16276 ft 207 kts 279°
2026-05-04 15:07 24.93798 118.09312 16011 ft 204 kts 279°
2026-05-04 15:07 24.94131 118.07810 15734 ft 201 kts 277°
2026-05-04 15:08 24.94295 118.06293 15431 ft 198 kts 270°
2026-05-04 15:08 24.94340 118.04790 15167 ft 194 kts 269°
2026-05-04 15:08 24.94368 118.03306 14861 ft 194 kts 269°
2026-05-04 15:08 24.94337 118.01826 14579 ft 192 kts 262°
2026-05-04 15:09 24.93991 118.00407 14240 ft 194 kts 248°
2026-05-04 15:09 24.93227 117.99166 13874 ft 199 kts 230°
2026-05-04 15:09 24.92105 117.98277 13568 ft 206 kts 212°
2026-05-04 15:10 24.89174 117.98041 12893 ft 225 kts 172°
2026-05-04 15:10 24.87660 117.98440 12575 ft 221 kts 179°
2026-05-04 15:10 24.84640 117.98843 11961 ft 218 kts 182°
2026-05-04 15:11 24.83136 117.98998 11680 ft 217 kts 183°
2026-05-04 15:11 24.81632 117.99144 11399 ft 216 kts 183°
2026-05-04 15:11 24.80142 117.99287 11115 ft 215 kts 183°
2026-05-04 15:11 24.78652 117.99429 10828 ft 214 kts 183°
2026-05-04 15:12 24.77164 117.99570 10536 ft 214 kts 182°
2026-05-04 15:12 24.75684 117.99709 10261 ft 213 kts 182°
2026-05-04 15:12 24.74210 117.99847 9998 ft 213 kts 182°
2026-05-04 15:12 24.72734 117.99983 9720 ft 212 kts 182°
2026-05-04 15:13 24.71260 118.00120 9426 ft 213 kts 181°
2026-05-04 15:13 24.69788 118.00260 9177 ft 211 kts 181°
2026-05-04 15:13 24.68344 118.00394 8873 ft 211 kts 181°
2026-05-04 15:13 24.66886 118.00530 8596 ft 209 kts 180°
2026-05-04 15:14 24.65440 118.00665 8311 ft 208 kts 180°
2026-05-04 15:14 24.64000 118.00799 8029 ft 207 kts 180°
2026-05-04 15:14 24.62566 118.00933 7750 ft 206 kts 179°
2026-05-04 15:14 24.61140 118.01066 7482 ft 205 kts 179°
2026-05-04 15:15 24.59716 118.01199 7219 ft 205 kts 179°
2026-05-04 15:15 24.58299 118.01324 6947 ft 203 kts 179°
2026-05-04 15:15 24.56907 118.01194 6671 ft 200 kts 198°
2026-05-04 15:16 24.54736 117.99431 6093 ft 196 kts 229°
2026-05-04 15:16 24.53841 117.98323 5803 ft 197 kts 229°
2026-05-04 15:16 24.52317 117.96439 5318 ft 197 kts 229°
2026-05-04 15:17 24.51110 117.94961 4955 ft 196 kts 228°
2026-05-04 15:17 24.49263 117.92711 4324 ft 199 kts 227°
2026-05-04 15:17 24.48335 117.91584 4210 ft 200 kts 227°
2026-05-04 15:18 24.47680 117.90844 4127 ft 200 kts 221°
2026-05-04 15:18 24.46478 117.90099 3980 ft 199 kts 193°
2026-05-04 15:18 24.44723 117.90262 3890 ft 193 kts 152°
2026-05-04 15:19 24.42907 117.91660 3886 ft 192 kts 139°
2026-05-04 15:19 24.41954 117.92643 3866 ft 180 kts 124°
2026-05-04 15:19 24.41853 117.95029 3880 ft 164 kts 60°
2026-05-04 15:20 24.42493 117.96055 3673 ft 163 kts 53°
2026-05-04 15:20 24.43176 117.97044 3403 ft 162 kts 53°
2026-05-04 15:20 24.43869 117.98023 3124 ft 162 kts 52°
2026-05-04 15:20 24.44561 117.98986 2890 ft 160 kts 52°
2026-05-04 15:21 24.45242 117.99941 2676 ft 159 kts 52°
2026-05-04 15:21 24.45925 118.00895 2466 ft 159 kts 52°
2026-05-04 15:21 24.47295 118.02811 2042 ft 160 kts 51°
2026-05-04 15:22 24.47984 118.03774 1832 ft 161 kts 52°
2026-05-04 15:22 24.48674 118.04740 1619 ft 161 kts 52°
2026-05-04 15:22 24.50026 118.06631 1194 ft 149 kts 51°
2026-05-04 15:23 24.50636 118.07485 996 ft 135 kts 51°
2026-05-04 15:23 24.51183 118.08253 828 ft 122 kts 51°
2026-05-04 15:23 24.51703 118.08968 669 ft 120 kts 51°
2026-05-04 15:23 24.52218 118.09700 528 ft 122 kts 51°
2026-05-04 15:24 24.52649 118.10290 395 ft 121 kts 51°
2026-05-04 15:24 24.52845 118.10558 360 ft 121 kts 51°
2026-05-04 15:25 24.53367 118.11292 181 ft 122 kts 52°
2026-05-04 15:25 24.53896 118.12042 57 ft 125 kts 51°
2026-05-04 15:25 24.54356 118.12689 51 ft 91 kts 52°
2026-05-04 15:26 24.54667 118.13140 48 ft 24 kts 64°
2026-05-04 15:26 24.54717 118.13356 54 ft 34 kts 82°
2026-05-04 15:26 24.54823 118.13630 49 ft 0 kts 53°
2026-05-04 15:28 24.54839 118.13652 52 ft 9 kts 52°
2026-05-04 15:28 24.54855 118.13734 53 ft 15 kts 116°
2026-05-04 15:28 24.54804 118.13862 51 ft 0 kts 82°
2026-05-04 15:29 24.54805 118.13873 48 ft 2 kts 83°
2026-05-04 15:30 24.54808 118.13890 47 ft 0 kts 79°